Regional Weather Roundup
Issued by NWS Midland/Odessa, TX

Home | Current Version | Previous Version | Text Only | Print | Product List | Glossary On
Versions: 1 2 3 4 5 6 7 8 9 10 11 12 13 14 15 16 17 18 19 20 21 22 23 24 25 26 27 28 29 30 31 32 33 34 35 36 37 38 39 40 41 42 43 44 45 46 47 48 49 50
000
ASUS44 KMAF 242210
RWRMAF
MIDLAND AREA WEATHER ROUNDUP
NATIONAL WEATHER SERVICE MIDLAND TX
400 PM CST FRI NOV 24 2017

...IN SOUTHWEST TEXAS AND SOUTHEAST NEW MEXICO...

CITY           SKY/WX    TMP DP  RH WIND       PRES   REMARKS
ALPINE         SUNNY     79  23  12 W16       30.00S
ANDREWS        FAIR      80  30  16 SW10      29.82S
ARTESIA        SUNNY     86  27  11 W9        29.83R
BIG SPRING     SUNNY     78  31  17 SW17      29.81F
CARLSBAD       SUNNY     83  27  13 W23       29.81F
DRYDEN           N/A     84  27  12 S13G22    29.83F
FORT STOCKTON  SUNNY     83  29  14 W8        29.84F
GUAD PASS      SUNNY     73  25  16 W35G43    29.97F
HOBBS          SUNNY     82  25  12 SW17      29.84S
LAMESA         FAIR      81  30  16 SW16      29.79F
MARFA          SUNNY     75  25  15 W15       30.01S
MIDLAND AIRPK  CLOUDY    80  30  16 SW13G18   29.81F
MIDLAND INTL   CLOUDY    81  30  15 SW18      29.81F
ODESSA         CLOUDY    81  28  14 SW15      29.82F
PECOS          SUNNY     85  28  12 W16       29.80F
PRESIDIO       FAIR      79  28  15 S6        29.94F
SEMINOLE       CLOUDY    83  28  13 W14G20    29.82S
SNYDER         CLOUDY    80  33  18 SW16      29.77F
WINK           SUNNY     85  27  12 SW9       29.79F
$$
...OTHER STATIONS IN TEXAS...

CITY           SKY/WX    TMP DP  RH WIND       PRES   REMARKS
ABILENE        CLOUDY    76  37  24 S12       29.76F
AMARILLO       CLOUDY    78  27  15 NW7       29.76R
AUSTIN         MOSUNNY   74  37  26 S14       29.86F
BROWNSVILLE    SUNNY     78  52  40 SE14      29.92F
CORPUS CHRISTI MOSUNNY   76  41  28 SE16      29.91F
DALLAS FTW     MOSUNNY   77  37  23 S16       29.77F
DEL RIO        SUNNY     78  41  26 SE12      29.83F
EL PASO        MOSUNNY   78  26  14 SW14      29.95F
HOUSTON INT    MOSUNNY   71  36  27 S6        29.92F
LUBBOCK        CLOUDY    83  22  10 W21       29.75F
SAN ANGELO     CLOUDY    81  32  17 S16G24    29.79F
SAN ANTONIO    MOSUNNY   74  36  25 S9        29.89F
WACO           SUNNY     76  38  25 S17       29.83F
WICHITA FALLS  CLOUDY    75  40  28 SW9       29.67R
$$
...OTHER LOCATIONS IN NEW MEXICO...

CITY           SKY/WX    TMP DP  RH WIND       PRES   REMARKS
ALAMOGORDO     SUNNY     73  27  17 N3        29.97F
ALBUQUERQUE    MOSUNNY   68  24  19 S3        30.00F
CANNON AFB     CLOUDY    80  19  10 W13G21    29.81F
CLOVIS         CLOUDY    80  24  12 W14       29.82S
HOLLOMAN AFB   SUNNY     72  29  20 W3        29.98F
ROSWELL        SUNNY     83  28  13 S6        29.83F
RUIDOSO        SUNNY     66  16  14 NW21G31   30.07S
SANTA FE       SUNNY     65  28  24 W3        30.02S
TRUTH OR CONSE SUNNY    N/A N/A N/A S3        29.98F
TUCUMCARI      CLOUDY    82  17   9 W12       29.76F
$$



USA.gov is the U.S. government's official web portal to all federal, state and local government web resources and services.